Wind_Speed
2 3 3 3 6 7 4 2 1 1 1 0 2 1 2 1 2 2 3 3 2 3 1 4 4 4 5 8 11 10 6 3 0 2 2 4 14 17 17 20 18 18 18 15 15 17 18 16 15 16 18 18 19 20 20 19 19 19 19 20 20 21 22 22 22 22 23 23 23 22 22 23 23 21 21 21 21 21 21 22 22 22 21 21 21 22 23 24 24 24 23 21 21 21 21 22 22
1 4 5 5 5 4 2 2 2 1 1 1 2 2 2 1 1 2 4 3 3 5 5 7 9 10 11 12 10 9 8 6 1 1 3 13 18 18 19 19 18 18 17 15 16 17 17 16 16 18 19 19 19 20 20 20 20 20 20 20 21 21 22 23 22 23 22 22 21 21 22 22 22 20 20 20 20 20 20 20 21 21 20 20 20 20 21 22 22 22 22 21 21 21 21 21 21
2 3 4 5 3 3 1 3 2 1 2 2 3 2 1 2 1 0 1 3 7 9 7 6 8 7 5 8 6 6 4 4 4 3 5 14 13 15 21 18 18 18 16 15 16 17 16 16 18 18 18 18 18 19 19 20 20 21 21 22 22 22 22 22 21 20 20 20 19 19 20 20 20 20 19 19 20 20 20 20 20 20 20 20 20 20 20 20 20 21 20 20 20 20 21 21 21
8 7 4 3 2 3 2 2 1 2 2 3 2 3 1 3 2 3 4 5 6 5 4 3 5 4 5 9 5 5 4 3 6 4 3 9 11 18 22 20 19 18 15 14 15 17 16 16 17 17 18 18 19 19 19 20 20 20 22 23 23 23 22 21 19 18 19 18 18 19 19 20 20 20 19 19 19 19 19 19 19 19 20 19 20 20 19 19 19 20 20 20 20 20 21 20 20
12 10 9 6 2 2 2 2 2 2 2 2 1 3 2 2 3 5 3 5 4 3 2 3 4 2 5 8 2 2 2 4 5 7 5 10 18 23 22 20 19 18 16 14 16 16 15 16 15 16 18 19 20 20 20 21 21 20 21 22 23 22 21 19 18 18 18 18 18 18 19 19 20 20 20 20 19 19 19 19 19 19 19 19 20 20 19 19 19 19 20 20 20 21 20 20 20
9 8 10 9 3 0 2 1 1 1 3 2 1 3 2 1 4 6 4 5 7 8 5 3 5 4 6 4 3 4 3 2 4 7 9 14 21 23 21 21 20 20 18 15 16 15 14 16 17 19 20 20 20 19 19 19 19 19 20 21 21 19 18 17 17 17 17 17 17 17 17 18 19 19 20 20 20 19 19 19 19 19 19 20 20 20 19 19 19 19 20 20 20 20 20 19 19
8 5 5 6 2 1 3 2 2 2 2 1 0 3 4 2 5 8 4 4 6 9 7 5 5 7 5 1 3 8 5 5 5 9 14 18 21 22 21 21 22 22 18 14 16 17 17 18 19 20 20 19 18 19 19 19 19 19 18 19 18 16 16 17 17 16 16 16 16 16 16 17 18 18 19 20 20 20 19 20 19 19 19 20 20 20 19 19 19 19 19 20 20 20 20 20 19
8 3 1 3 2 2 2 1 2 2 1 1 3 5 6 3 6 6 3 3 3 5 6 3 4 7 4 3 4 8 11 13 13 17 19 20 21 21 21 22 23 22 18 14 18 21 19 18 19 19 19 19 19 19 19 18 18 17 17 17 16 15 15 15 16 16 15 15 15 16 16 17 17 18 18 19 19 20 19 20 20 19 19 20 20 20 19 19 19 19 19 18 19 19 19 19 19
6 3 0 2 2 1 1 1 2 1 1 3 6 6 7 4 2 5 6 7 4 4 8 3 2 7 4 6 6 4 12 18 20 21 19 20 21 21 22 22 22 22 20 18 21 23 22 20 21 21 20 20 20 19 18 17 16 16 16 16 15 15 15 15 16 16 16 15 15 15 16 17 17 18 18 19 20 20 20 20 20 19 19 19 20 19 19 18 18 19 18 18 17 18 19 19 19
3 2 1 2 2 1 1 1 2 2 1 2 5 7 8 6 5 8 7 8 5 6 7 6 8 10 8 6 4 2 6 16 21 20 19 21 22 23 22 22 23 24 25 24 24 25 24 24 23 23 22 21 21 21 20 17 17 17 16 15 16 16 16 16 16 16 17 17 16 16 17 18 19 19 19 19 20 21 21 20 20 20 20 19 19 19 19 18 18 19 18 18 17 17 18 19 20
1 2 2 2 2 2 3 2 2 1 3 3 5 7 8 7 5 7 7 7 4 6 3 5 9 8 9 5 2 3 7 18 21 19 20 23 24 25 25 25 26 27 28 26 25 23 22 21 21 21 21 22 22 22 21 19 18 17 16 16 16 16 17 17 18 18 19 19 19 18 18 19 19 20 20 20 20 20 21 21 20 20 20 20 19 19 19 18 18 18 18 18 17 18 19 19 19
1 1 3 2 2 3 3 2 2 1 3 5 6 7 6 7 7 5 8 7 5 8 6 5 6 5 6 4 1 5 13 19 20 20 22 26 26 26 27 27 27 28 27 25 23 22 19 18 17 17 18 20 22 22 21 20 20 18 17 17 18 18 18 18 18 18 18 17 16 15 16 16 16 17 18 19 19 19 19 21 21 20 20 20 20 20 19 18 18 18 17 18 18 18 19 20 19
2 2 4 2 3 3 2 3 3 2 3 3 4 7 6 7 9 3 5 9 7 8 8 6 5 4 5 3 2 4 12 17 19 23 26 29 29 28 28 27 27 27 25 23 22 20 18 17 17 17 17 18 20 20 18 18 18 17 17 16 17 17 17 16 15 15 15 14 13 13 13 13 14 15 16 17 17 17 17 18 20 20 19 20 20 19 19 18 18 18 17 18 18 18 18 19 19
3 2 4 2 0 2 3 2 2 3 2 3 3 6 5 5 6 5 6 9 9 4 4 8 3 5 5 3 2 2 10 18 23 27 29 30 28 28 27 26 26 25 23 22 21 19 18 18 17 18 17 16 16 15 14 13 13 13 13 13 13 14 14 14 13 14 14 14 14 14 13 14 14 15 16 16 16 17 16 16 18 19 19 19 18 18 19 18 18 18 18 18 17 17 18 19 19
4 2 4 2 2 1 2 2 2 4 2 2 3 4 8 7 4 7 9 5 5 5 2 9 7 2 4 4 4 4 12 21 25 28 29 29 27 28 26 25 25 24 23 22 21 20 18 18 17 17 15 14 13 11 11 11 10 10 11 12 12 12 13 13 13 13 13 13 14 14 14 14 14 15 15 16 16 15 15 14 14 16 18 18 16 15 17 18 18 18 18 18 17 17 18 19 19
3 3 4 1 0 0 1 2 3 3 2 4 3 2 10 10 6 7 9 4 5 7 6 7 8 4 4 4 8 11 17 20 24 28 28 27 26 26 25 25 25 24 24 22 21 19 18 17 15 15 13 13 12 12 11 11 11 11 11 12 12 12 12 12 12 12 12 13 13 13 13 14 14 15 14 15 15 14 14 13 12 12 14 15 14 13 14 16 16 16 17 17 16 17 18 18 18
3 3 3 0 1 2 1 3 4 3 5 4 2 2 8 7 6 7 9 12 9 10 11 7 9 11 8 9 13 16 18 19 24 26 26 26 25 25 24 24 24 23 23 22 21 19 17 15 14 14 13 13 13 13 12 13 12 11 12 12 12 12 11 11 11 11 11 12 13 13 13 14 14 14 14 14 14 15 14 14 13 13 12 13 14 13 13 14 14 14 15 16 17 18 18 18 18
3 2 3 1 3 2 1 3 5 4 6 2 5 4 8 6 2 2 7 12 9 11 11 9 15 16 14 17 19 19 19 20 22 24 25 24 23 24 23 22 23 23 22 22 20 18 16 15 14 14 15 14 13 13 13 13 12 11 11 11 11 11 11 10 10 10 10 11 11 12 13 14 15 15 15 15 15 15 15 15 14 14 14 14 15 15 14 14 15 15 15 17 18 18 19 19 19
4 2 2 2 3 2 3 2 3 5 8 6 6 6 7 4 2 3 5 6 7 12 8 8 14 13 14 18 19 21 21 22 22 24 25 22 22 22 21 22 23 22 22 22 20 19 17 16 16 16 17 16 15 15 14 13 12 11 11 11 11 11 10 10 10 10 10 11 11 12 13 14 15 15 16 16 15 15 15 16 15 16 16 16 17 16 16 16 17 17 17 18 19 19 20 20 21
2 3 2 2 4 3 6 3 4 6 9 10 7 5 8 6 4 3 7 8 8 8 4 5 11 8 8 10 15 22 22 23 22 24 24 22 21 20 20 21 21 22 21 21 21 20 18 18 17 17 17 16 15 15 14 12 11 10 10 10 10 10 10 10 10 10 11 12 13 14 15 15 16 16 17 16 17 17 17 17 17 18 18 18 19 19 19 19 19 19 19 20 20 21 22 22 23
2 3 2 2 3 4 7 5 7 7 8 10 7 7 9 5 6 4 5 8 7 3 3 3 6 5 5 6 11 18 20 21 19 21 22 21 20 19 20 20 21 21 21 21 21 20 19 18 18 17 16 15 14 13 12 11 10 9 9 9 9 10 10 10 11 11 12 13 14 15 16 17 17 17 18 18 18 19 19 19 19 20 20 20 21 21 21 22 22 22 22 22 23 23 23 23 24
4 4 1 3 1 5 4 5 7 6 6 9 7 7 6 2 7 7 3 7 3 1 3 3 3 3 5 6 10 15 17 17 16 18 19 20 20 20 21 21 21 21 21 22 21 20 19 18 17 16 15 13 12 11 10 10 9 8 9 9 9 9 10 11 11 12 13 14 15 16 16 17 18 18 19 19 19 20 20 20 20 20 20 21 21 22 22 23 23 24 24 24 24 24 24 23 24
5 3 5 6 4 6 3 4 6 5 8 8 6 5 4 6 7 7 8 7 2 2 3 4 5 5 7 8 11 12 13 14 14 15 17 19 20 20 20 21 21 21 22 22 21 21 19 18 16 14 13 12 12 11 10 9 8 8 9 9 9 10 11 11 12 13 14 14 15 16 16 17 18 18 19 20 20 20 20 20 20 20 20 21 21 22 22 23 23 24 25 25 25 25 25 25 25
7 4 5 8 9 8 5 6 7 9 12 7 6 8 5 6 7 4 8 6 3 5 7 7 8 8 10 10 10 11 12 13 14 14 16 18 19 20 20 21 21 22 23 22 21 20 19 17 15 13 13 12 12 10 9 9 9 9 9 9 9 10 11 12 13 13 14 15 16 17 18 18 19 19 19 20 20 20 20 20 20 20 21 21 21 22 23 23 24 24 25 26 26 26 26 26 26
6 4 3 6 8 9 8 9 11 12 12 9 13 13 7 7 7 5 5 4 4 5 7 8 8 9 9 9 9 10 12 13 14 15 16 17 19 20 20 20 21 22 23 22 21 20 18 17 15 13 12 11 11 9 8 9 9 9 9 10 11 11 11 13 13 13 15 16 17 18 18 19 19 19 19 19 19 19 20 20 20 21 21 22 22 23 24 24 25 25 25 26 26 27 27 27 27
4 7 6 8 8 7 8 8 9 9 5 7 15 10 4 4 5 5 3 2 4 4 6 5 6 7 5 6 7 9 11 12 14 15 16 16 18 19 19 20 21 21 22 21 20 19 18 16 14 13 11 10 9 8 8 8 8 8 9 10 10 11 12 13 13 14 15 16 17 18 18 18 19 19 19 19 19 19 19 19 20 21 21 22 23 23 24 24 25 25 26 26 26 27 27 27 27
9 13 10 10 10 4 6 7 6 7 4 4 11 6 2 3 2 3 1 1 4 4 5 3 4 5 3 4 6 8 9 11 13 14 15 15 16 18 19 19 20 20 20 20 19 17 16 14 13 12 11 9 8 7 7 7 7 8 9 9 9 10 11 11 12 14 14 15 16 17 17 17 18 18 18 18 18 18 19 19 20 20 21 21 22 23 23 24 24 25 25 26 26 26 27 27 27
14 15 14 9 8 6 5 5 2 4 4 3 10 8 3 6 3 3 3 3 4 4 4 3 3 3 3 3 4 6 7 9 11 12 14 15 16 18 19 20 20 20 19 19 18 16 15 13 12 11 10 9 7 7 6 6 7 8 8 8 9 10 10 11 12 13 14 15 15 15 16 17 17 17 17 18 18 18 18 19 19 20 20 21 21 22 22 23 23 23 24 25 25 26 26 27 27
9 9 12 3 3 6 6 4 3 3 3 4 5 5 3 5 1 2 3 4 4 3 3 1 2 2 2 2 2 4 5 7 9 10 12 14 16 18 19 20 20 20 19 18 17 16 14 13 12 11 9 8 6 6 6 6 6 7 7 8 9 9 10 11 12 12 13 13 14 15 15 15 16 17 17 17 17 17 17 18 18 19 20 20 21 21 22 23 23 24 25 25 26 26 27 28 28
4 4 7 4 2 5 7 4 3 4 3 4 1 1 3 3 3 4 3 5 4 3 3 3 3 2 2 1 0 1 3 6 8 9 11 14 16 18 19 20 20 20 19 18 17 15 14 12 11 9 8 6 5 6 5 6 6 7 7 8 8 9 9 10 11 11 12 12 13 13 14 14 15 16 16 16 16 16 17 17 18 18 19 20 20 21 22 23 24 24 25 26 26 27 28 28 29
4 3 3 4 3 1 5 5 3 2 2 1 3 2 4 6 6 5 5 5 5 5 5 4 4 3 2 2 1 1 2 5 8 10 12 14 16 17 18 19 19 19 19 18 16 14 13 11 9 8 6 5 4 5 5 6 6 6 7 7 8 8 9 9 10 10 10 10 11 12 13 13 14 15 15 15 15 15 16 16 17 18 18 19 20 21 22 23 24 24 25 26 27 27 28 28 29
3 3 1 2 3 1 3 4 3 1 2 2 4 2 3 6 7 7 7 6 5 5 5 5 4 4 3 3 3 3 3 6 8 10 12 14 15 17 18 19 18 18 17 17 15 13 12 10 8 6 5 4 4 4 5 5 6 6 7 7 7 7 7 8 8 8 9 9 10 11 12 12 13 13 13 13 14 13 14 14 15 16 16 18 19 20 22 23 23 24 24 25 27 28 28 29 29
3 3 3 1 3 2 2 1 2 1 2 2 1 3 2 3 6 8 7 7 7 5 6 6 5 5 4 4 4 3 4 5 8 11 13 14 15 16 17 18 18 17 16 15 14 12 11 10 8 6 5 4 3 4 4 4 5 5 6 6 6 5 5 6 6 7 7 8 9 10 11 11 12 12 12 12 13 13 12 12 13 14 15 17 18 19 20 21 22 23 23 24 25 27 28 29 30
2 2 2 1 3 4 2 3 2 5 1 2 3 3 4 3 4 8 7 8 7 6 8 7 6 5 4 4 4 5 5 5 9 14 15 16 16 17 17 17 17 16 15 14 13 11 11 10 8 7 5 4 3 3 3 3 4 4 4 4 4 3 4 4 4 5 7 8 9 10 10 11 12 12 12 12 12 12 11 11 12 13 15 15 16 17 18 18 19 21 22 22 23 25 26 27 28
4 2 3 2 1 2 1 3 2 7 2 0 3 1 4 3 3 6 6 7 8 8 8 7 7 6 6 6 5 6 6 6 11 17 17 17 18 18 18 18 17 17 15 14 13 12 11 10 9 7 6 5 4 3 2 2 3 3 3 3 3 2 2 3 4 5 7 8 8 9 10 11 11 11 12 12 12 11 10 11 11 12 14 14 15 16 16 17 18 19 20 22 22 22 22 24 25
6 4 4 5 3 1 2 3 2 3 4 2 1 3 4 3 5 6 5 6 7 7 6 5 6 6 7 6 6 7 7 9 15 19 18 19 20 20 19 19 18 17 16 16 15 14 13 12 10 9 7 6 5 3 2 1 1 2 2 3 3 2 2 3 4 6 7 8 9 10 10 10 11 11 12 12 11 10 10 10 11 12 13 14 15 15 16 17 17 19 20 21 22 21 22 22 23
6 5 5 4 3 1 3 2 3 1 2 2 2 3 5 6 7 7 5 5 6 7 7 7 8 7 8 8 8 9 8 11 16 19 20 21 21 21 21 20 19 18 18 18 17 16 15 13 12 10 9 8 6 5 3 2 2 0 1 2 3 3 3 4 6 7 8 9 10 11 11 11 12 12 12 13 12 11 10 10 10 11 11 13 14 14 15 15 16 18 19 20 20 20 23 21 21
5 6 5 4 2 2 3 1 3 2 1 2 2 3 7 7 6 6 5 7 9 9 9 10 10 9 8 9 10 10 8 10 14 18 21 23 23 23 23 22 22 22 22 21 20 19 17 16 14 12 11 10 8 6 5 4 3 2 1 1 2 2 3 5 6 7 8 9 11 11 12 13 13 14 14 14 13 12 11 10 10 10 11 12 13 13 14 15 16 17 19 21 19 19 21 19 19
5 4 5 2 1 1 1 2 3 3 0 2 1 2 7 7 6 7 7 9 9 9 11 11 11 11 10 10 11 10 9 9 12 16 21 25 26 26 25 25 26 25 24 23 22 20 19 18 16 14 13 12 10 9 7 6 5 4 3 2 2 2 3 5 6 7 7 8 10 11 12 13 13 14 14 14 14 13 12 11 11 11 12 12 13 13 14 14 15 16 18 19 18 20 20 16 16
3 3 4 1 1 2 1 2 2 3 1 1 1 2 6 5 5 8 10 10 7 7 10 10 9 11 12 12 11 11 12 12 12 14 19 25 26 27 29 29 29 28 27 26 25 23 23 21 19 17 16 14 12 11 9 8 7 6 4 3 3 3 4 5 5 6 7 8 9 10 12 13 13 13 13 13 13 13 12 12 11 12 12 13 14 14 14 14 14 16 17 17 18 20 18 15 15
2 3 5 2 3 3 1 1 1 2 2 2 2 2 5 4 5 9 6 6 9 8 8 10 11 11 10 10 11 12 13 13 13 13 17 22 26 29 31 31 31 31 31 30 29 27 26 24 21 18 17 16 15 14 12 11 10 8 7 6 5 5 5 5 5 6 6 7 9 10 11 13 13 13 13 13 13 13 12 11 11 12 13 12 13 13 13 13 13 15 16 16 17 17 16 15 14
2 1 3 3 4 4 3 2 2 3 3 3 4 3 5 3 5 9 3 4 10 8 9 13 12 10 10 11 12 11 12 13 14 15 18 23 27 29 30 31 32 33 35 34 31 30 28 25 22 21 20 19 18 16 15 14 13 11 10 10 9 9 8 8 6 6 7 7 8 10 11 12 13 14 14 13 13 13 13 12 12 12 12 12 12 12 12 12 13 14 14 15 15 14 13 14 14
2 1 0 1 5 6 4 2 2 1 2 3 3 1 5 5 4 7 3 6 10 7 10 15 12 11 12 12 12 11 12 12 13 16 20 23 26 27 29 32 34 36 38 36 33 32 30 28 25 24 23 23 21 19 18 18 16 14 13 13 13 12 11 10 8 8 7 7 8 9 11 12 13 14 14 14 13 13 13 13 13 12 12 12 11 11 12 12 13 14 14 14 14 13 11 12 13
1 1 2 3 5 5 4 4 3 1 2 3 2 3 2 6 5 4 1 6 10 9 12 15 13 13 14 14 14 13 14 13 12 13 18 23 27 28 31 34 37 39 38 35 35 34 32 31 29 27 26 26 24 22 21 21 20 18 16 15 16 15 13 11 9 8 8 8 9 9 10 12 13 14 14 13 13 13 14 14 13 12 12 12 11 11 12 13 14 14 14 13 13 12 11 11 12
2 2 1 2 3 4 4 5 3 1 3 3 2 2 1 6 5 3 1 4 9 12 16 16 15 16 15 15 15 15 14 14 13 14 18 24 29 31 34 35 37 39 37 36 37 37 35 34 32 31 30 29 28 26 25 24 22 20 18 18 18 16 14 12 10 10 9 9 10 10 11 12 13 14 14 14 14 14 14 13 13 13 13 12 12 12 12 13 14 14 14 13 13 12 11 11 12
1 1 4 4 5 5 4 4 3 3 3 3 3 3 1 6 6 1 1 3 9 12 14 14 15 14 14 15 15 15 13 12 14 17 22 26 30 33 35 35 36 37 37 37 38 38 37 36 35 35 34 33 31 29 28 27 25 23 22 21 20 18 16 13 12 12 11 11 11 11 12 13 13 14 14 14 15 14 14 14 14 13 13 13 13 13 13 14 14 14 14 13 12 13 13 12 12
3 4 5 5 5 4 3 2 3 4 3 5 4 5 4 3 6 4 3 5 8 9 9 10 11 11 13 14 14 14 13 12 13 15 22 27 29 31 32 33 36 37 36 36 37 38 39 38 38 38 38 36 34 32 31 29 28 27 25 24 22 20 17 15 14 14 13 13 13 13 13 13 14 14 15 15 15 15 14 14 14 14 13 14 14 14 14 15 15 14 14 13 13 13 14 13 13
4 3 3 4 4 3 4 4 3 2 4 5 3 4 4 3 7 5 5 7 6 7 8 9 10 10 12 13 13 13 12 12 12 11 17 22 24 27 29 32 36 36 35 36 38 39 39 39 39 39 39 39 38 36 33 32 31 29 28 26 24 22 19 18 17 17 15 14 14 14 13 14 15 15 15 16 16 15 15 15 14 14 14 15 15 15 16 16 15 15 14 14 14 14 14 13 13
4 3 4 4 4 4 3 3 1 2 6 3 1 2 2 7 10 9 10 13 10 9 9 9 9 8 9 10 10 10 9 10 11 11 12 15 20 24 27 32 34 34 36 38 39 39 39 40 39 39 41 41 40 38 36 35 33 32 31 29 26 24 21 20 20 19 17 16 15 15 15 15 15 16 16 17 16 15 15 16 15 15 16 16 16 17 17 16 16 16 15 16 16 15 15 14 14
3 2 4 3 2 3 3 4 2 4 5 2 2 2 2 6 8 10 14 14 9 8 9 9 8 8 8 7 7 8 8 10 11 11 11 13 20 25 28 31 33 34 37 39 39 39 39 40 39 40 43 42 40 39 38 37 36 35 33 30 28 25 24 23 22 20 18 17 16 16 16 16 16 17 17 16 16 15 16 17 16 17 16 17 17 17 17 17 16 16 16 17 17 16 16 15 16
1 3 4 3 4 2 3 4 3 4 5 4 2 0 4 4 4 7 9 8 6 5 7 6 7 8 7 5 6 7 9 10 10 11 12 16 23 27 28 31 33 35 38 38 38 39 38 40 41 42 44 43 41 40 40 39 39 37 34 32 29 27 26 24 23 21 19 18 17 17 17 18 18 18 17 16 16 16 17 18 17 17 17 18 18 18 18 17 17 17 17 18 18 17 17 17 17
1 2 3 1 3 4 1 3 4 2 3 4 2 3 5 4 8 9 5 5 7 6 6 5 8 9 5 6 8 8 9 9 10 11 12 18 26 28 28 31 33 35 36 36 38 39 39 41 42 42 44 44 42 41 41 41 40 38 36 33 31 29 27 26 24 22 20 19 18 18 19 19 19 19 18 17 17 17 18 19 18 18 18 19 19 18 18 18 18 18 18 19 19 19 18 18 18
0 1 1 2 3 5 4 1 0 3 1 4 2 4 5 4 9 8 3 5 8 6 7 8 9 7 5 8 10 9 9 10 10 11 12 18 24 27 29 31 32 34 35 37 40 41 42 43 43 43 44 43 41 42 42 41 40 38 37 35 33 30 29 28 26 24 21 20 19 20 20 20 20 20 19 18 18 18 19 19 19 19 19 19 20 19 19 19 19 19 19 20 20 20 19 19 18
2 1 3 2 1 4 3 0 3 3 2 4 2 5 6 3 5 6 6 7 9 7 8 9 8 6 6 10 10 10 11 10 9 11 12 16 21 25 28 32 34 36 37 39 42 42 42 43 43 43 43 43 43 43 42 41 40 39 39 37 34 32 30 29 27 24 21 20 20 21 21 21 21 20 20 19 19 19 20 20 20 20 20 20 20 20 20 20 20 20 20 21 21 20 20 20 19
2 2 2 2 2 0 1 1 1 1 2 5 5 6 5 5 5 5 6 7 8 9 7 7 9 9 9 11 12 11 11 9 9 10 10 14 19 25 29 31 34 37 38 40 41 39 39 40 42 42 43 43 43 42 40 40 40 40 39 38 35 33 31 29 27 23 21 21 22 22 22 23 22 21 21 20 20 20 20 20 20 21 21 21 21 21 21 21 21 21 21 22 22 21 21 20 20
3 1 1 2 2 4 1 1 3 2 2 4 5 5 5 8 6 5 8 8 7 10 8 7 10 11 10 10 10 10 10 9 9 10 10 12 19 26 29 31 34 36 38 38 37 36 37 39 40 40 41 41 39 39 39 39 40 39 38 37 35 33 31 29 27 24 23 23 23 23 23 23 22 22 21 21 21 21 21 21 21 21 21 22 22 22 22 22 22 22 22 23 23 22 21 21 21
2 1 0 1 0 1 1 0 2 3 2 3 2 4 9 8 5 7 10 9 8 10 9 8 10 10 10 10 9 9 9 9 9 10 10 12 19 25 28 31 33 33 33 34 34 35 37 38 38 39 40 39 38 39 39 39 39 38 38 37 35 32 31 29 26 24 24 23 23 23 23 23 23 23 22 22 22 21 21 22 22 22 22 22 23 23 23 23 22 23 23 23 23 22 22 22 22
5 4 4 3 2 3 0 3 2 2 3 4 2 5 13 7 5 7 9 8 10 10 8 9 9 9 9 9 9 10 9 9 10 10 9 11 16 22 25 27 29 29 30 32 34 34 35 36 38 38 38 38 39 39 39 39 38 37 37 36 34 32 31 29 26 24 24 24 24 23 23 23 24 24 23 22 22 22 22 22 22 23 23 23 23 24 24 23 23 24 24 23 24 23 23 23 23
Wind_Direction
36 111 101 121 140 147 136 88 56 341 77 47 271 219 260 217 144 127 115 168 115 71 55 66 57 46 76 109 118 102 58 33 99 147 146 146 126 126 126 120 118 110 103 99 95 89 86 84 85 89 85 81 77 74 73 72 70 68 68 67 66 63 61 58 56 52 50 52 51 49 49 49 50 47 44 42 41 40 38 34 34 35 34 31 28 25 24 26 27 29 31 26 21 22 21 20 20
58 128 112 115 116 139 170 72 102 311 75 310 267 184 262 339 80 144 164 175 115 129 128 93 79 68 89 112 120 92 46 18 45 126 102 124 122 122 127 122 117 108 102 101 96 92 89 85 85 83 77 76 74 72 72 71 71 69 68 67 66 64 62 59 55 51 49 50 49 46 47 48 49 48 45 44 43 42 41 38 35 35 35 33 31 28 25 24 23 23 25 23 21 21 20 19 18
49 109 118 123 70 66 93 45 110 157 140 234 265 234 246 111 167 110 56 91 120 137 131 103 85 56 73 87 56 56 49 354 29 31 96 115 117 118 125 121 110 106 103 101 97 94 93 91 84 78 76 77 75 74 73 72 71 68 66 65 65 64 62 59 55 53 53 54 53 51 50 50 49 48 46 44 43 41 40 39 37 35 35 33 32 31 28 25 23 23 22 21 21 19 19 17 16
56 47 60 120 48 31 65 46 133 130 159 225 262 274 236 160 150 68 39 83 119 133 125 87 64 7 48 69 31 53 70 323 20 36 83 106 117 121 122 117 112 110 103 99 98 92 92 94 86 81 81 80 76 75 75 73 71 68 64 63 62 61 60 60 58 58 57 57 57 56 54 53 50 48 46 43 42 41 39 37 36 34 34 32 30 29 28 25 23 22 21 20 19 18 17 16 16
59 45 42 64 88 24 89 78 110 129 197 190 209 274 253 195 106 82 42 66 67 38 71 100 86 1 68 67 16 64 25 303 36 65 85 112 123 122 121 119 115 108 101 100 95 90 94 93 86 86 84 82 78 75 75 71 68 67 63 63 61 58 60 60 59 58 57 57 56 55 53 52 49 46 44 43 42 40 38 36 34 33 32 30 28 26 25 25 23 21 20 20 19 18 17 16 18
74 64 43 52 96 25 116 127 135 194 241 166 202 276 302 300 99 107 101 83 58 41 35 66 108 119 85 64 68 45 305 235 73 82 106 121 124 123 124 120 111 102 100 100 91 91 99 92 87 89 85 83 79 74 74 70 68 68 63 62 62 60 60 59 57 56 56 55 53 52 50 48 45 43 42 42 42 40 38 35 33 32 31 28 26 25 23 24 23 21 21 20 18 19 19 18 18
103 87 34 50 69 9 115 150 184 203 288 146 313 317 333 322 134 127 128 110 59 38 31 46 97 108 74 33 84 26 15 145 114 117 123 121 123 122 123 117 109 107 106 102 93 92 95 91 87 85 83 81 78 77 76 73 70 68 66 63 64 62 58 56 54 53 52 52 51 50 47 45 42 39 39 39 39 39 37 34 33 31 29 27 25 24 24 24 23 22 21 21 19 20 21 20 18
91 85 342 70 60 15 105 198 229 194 355 14 6 334 323 282 161 126 79 69 63 24 22 35 84 85 47 25 88 25 59 113 120 121 123 117 121 121 119 117 114 112 112 107 97 92 88 86 85 82 82 81 78 79 76 72 70 69 68 64 63 59 57 55 52 51 49 50 49 49 47 43 40 37 36 36 37 36 35 33 31 29 27 25 24 24 24 24 23 21 20 20 19 19 20 20 21
65 63 283 78 109 54 49 285 283 314 30 26 19 346 331 320 110 92 73 64 78 57 25 328 78 92 98 63 82 28 65 103 114 114 118 118 119 121 117 113 112 111 112 107 99 93 86 83 82 81 81 81 77 76 74 73 71 70 67 63 60 57 56 53 51 50 49 49 49 50 47 43 41 40 38 36 37 36 34 31 28 27 25 23 22 23 24 23 22 21 20 20 19 18 18 20 21
55 47 146 78 110 125 309 282 289 346 29 50 27 0 347 340 55 69 77 81 78 85 50 27 64 100 120 71 72 10 63 107 110 104 108 113 113 113 109 103 103 106 106 104 103 99 93 88 85 83 80 78 75 73 74 75 73 69 66 63 61 58 58 55 55 54 53 55 54 54 51 47 45 43 40 38 38 37 35 32 29 28 25 24 21 23 23 22 23 21 21 22 22 20 18 18 18
43 355 111 105 89 163 217 240 244 358 3 19 19 10 0 343 61 58 52 81 56 79 55 23 70 101 101 75 54 45 86 108 104 93 96 105 106 103 101 100 101 102 103 104 105 104 99 95 93 91 87 81 74 73 74 74 74 70 68 65 63 61 61 60 60 58 58 60 58 58 54 51 48 44 41 37 36 36 34 31 28 27 25 23 23 24 23 23 22 21 21 23 24 21 18 16 15
98 314 77 111 170 186 203 177 176 147 2 16 6 355 358 359 53 59 54 66 31 65 30 5 125 131 83 80 46 73 81 92 95 91 94 100 102 100 99 101 102 102 104 106 105 102 98 94 92 91 92 89 82 80 78 76 74 71 71 69 67 65 64 64 63 62 62 64 62 59 54 51 49 45 41 36 33 31 31 29 26 25 24 23 24 25 24 23 21 20 21 19 18 18 17 16 15
130 167 94 140 195 163 165 144 154 100 21 29 12 343 352 29 48 41 71 61 22 62 32 0 147 110 82 101 56 85 73 80 97 98 99 99 99 101 101 100 101 102 102 106 104 98 95 93 91 91 93 96 94 93 89 84 80 77 77 74 71 68 66 65 65 66 66 66 63 58 52 47 45 41 36 32 27 22 24 28 27 25 23 23 25 26 24 23 21 20 18 16 15 15 13 12 11
166 156 119 170 62 119 155 135 157 108 43 1 9 345 358 44 47 33 60 65 27 31 36 18 47 90 102 138 82 86 76 89 103 103 103 102 102 103 100 99 99 99 99 101 100 97 98 96 97 97 97 99 100 101 98 92 87 84 80 76 73 68 65 64 63 64 63 62 58 53 47 42 38 33 29 25 22 19 18 24 27 26 24 23 22 24 23 20 19 18 16 14 11 6 1 360 1
170 129 93 139 27 70 161 117 152 123 91 54 73 40 50 36 16 44 34 65 45 338 29 31 8 81 127 151 134 108 97 100 104 105 107 105 104 101 97 98 97 96 97 98 99 98 100 101 103 102 102 103 103 102 100 95 90 86 81 77 72 67 64 62 60 59 57 55 50 46 41 36 32 27 24 20 18 17 15 17 20 22 23 20 14 15 19 17 16 15 13 9 1 351 348 350 351
134 105 68 107 245 204 160 126 143 112 145 162 135 87 70 39 25 64 21 40 87 19 43 22 354 48 76 82 97 101 108 107 105 110 111 107 102 98 96 95 94 93 94 96 97 98 101 105 107 106 107 107 109 108 105 98 92 90 86 80 74 70 66 62 58 54 50 47 42 37 31 27 25 21 17 15 13 10 10 10 9 11 14 11 3 2 9 10 8 7 6 359 348 342 342 343 344
81 89 73 35 207 182 174 156 177 152 161 179 354 38 108 81 46 82 45 48 76 54 56 48 36 54 53 64 86 100 112 111 111 114 107 102 100 94 91 89 91 90 90 94 96 100 106 109 110 112 113 113 115 113 108 102 97 92 86 81 75 70 65 61 55 49 45 39 35 29 24 21 19 16 13 11 9 7 6 5 2 1 1 359 356 356 357 357 355 353 352 346 340 338 337 335 337
72 91 114 208 202 174 263 194 187 133 135 155 9 39 112 112 20 44 47 35 51 67 56 58 61 54 58 77 92 103 112 110 111 111 99 94 94 90 84 85 90 89 91 96 99 104 109 112 115 117 117 118 121 116 110 105 100 93 85 78 71 65 61 56 51 47 41 35 30 22 20 18 15 13 11 11 9 8 5 2 359 356 355 353 352 353 352 349 347 345 343 338 336 335 333 334 335
90 124 112 235 195 107 325 238 175 111 129 124 62 47 71 77 317 12 64 24 32 69 47 52 73 54 52 70 86 98 103 101 102 103 96 90 90 90 87 88 92 93 96 100 103 107 111 114 117 119 118 119 122 116 112 107 100 92 83 75 69 63 57 53 48 43 36 30 24 19 19 17 15 14 13 12 10 8 5 2 358 355 353 351 350 349 348 347 345 344 341 337 335 335 336 337 338
117 125 89 240 171 75 359 19 92 110 129 116 92 74 61 32 349 46 103 76 38 64 42 55 89 70 48 52 73 89 94 92 95 97 95 93 93 95 95 95 96 97 101 105 109 112 115 118 118 119 118 119 119 114 109 102 93 85 77 69 62 58 50 45 41 34 29 25 21 19 18 16 15 14 13 9 6 4 2 359 356 353 351 349 347 345 344 344 342 340 339 338 336 336 338 338 338
82 75 95 253 152 75 9 31 75 88 106 107 109 91 72 29 25 42 126 92 45 37 3 34 97 91 76 57 68 86 91 89 92 95 96 97 97 99 101 102 103 104 108 112 114 116 118 120 120 120 118 118 115 110 105 94 85 77 69 61 52 47 40 33 32 28 26 22 19 18 15 13 10 8 7 3 1 0 357 354 352 350 348 346 343 342 342 341 340 338 338 337 337 337 338 337 336
72 56 40 307 126 101 28 30 60 73 91 88 86 78 81 57 36 20 57 102 103 288 332 3 59 66 87 85 82 88 90 91 93 97 100 103 104 106 107 110 111 113 116 115 115 117 119 121 121 121 120 117 111 106 101 93 87 77 68 59 48 43 37 31 31 27 22 18 15 13 10 8 5 4 2 0 359 358 355 353 351 348 345 344 342 341 340 339 338 338 338 337 338 337 336 335 334
93 51 21 10 54 97 55 33 42 67 85 70 76 93 101 96 65 25 51 83 96 8 13 40 56 71 97 96 95 93 93 96 98 103 109 112 113 115 116 118 118 119 119 116 117 119 120 121 121 122 120 115 109 106 102 98 89 79 70 60 51 43 36 30 28 22 16 12 9 7 5 3 1 0 358 358 358 356 355 352 351 349 346 345 343 342 339 338 338 337 337 337 336 335 334 334 332
88 89 42 41 55 73 66 69 70 75 80 77 93 88 58 82 97 52 52 56 25 41 55 70 78 91 100 97 96 98 102 105 106 112 116 119 121 122 123 123 122 122 121 119 120 122 122 122 123 123 119 115 111 107 103 95 84 77 68 58 49 40 31 26 23 15 10 7 5 3 1 0 359 358 356 356 355 353 353 352 351 348 347 347 345 344 341 339 339 338 337 336 335 334 333 333 332
74 104 99 71 66 76 80 84 83 81 87 91 81 74 60 82 105 84 50 27 19 47 65 78 92 94 94 96 101 108 112 113 116 120 122 124 127 127 127 126 126 125 123 123 124 125 124 124 125 123 120 117 112 107 99 88 77 70 58 49 41 32 25 22 16 8 6 3 1 360 359 358 356 356 355 354 353 351 351 350 348 348 348 347 345 345 343 342 341 339 338 336 336 334 334 334 333
84 101 104 100 94 86 81 77 77 81 89 89 80 76 78 87 89 73 38 15 34 51 63 66 92 92 88 97 111 122 123 127 129 129 128 130 132 130 129 130 130 128 126 127 128 127 127 129 128 123 120 116 112 108 98 85 73 60 49 41 33 26 22 17 9 4 3 359 359 359 357 356 356 355 354 353 351 350 349 347 347 347 347 346 346 346 346 344 342 341 339 337 336 334 334 334 332
107 104 90 90 98 82 70 77 82 80 29 51 97 106 20 8 58 100 178 128 66 68 63 44 89 98 103 109 121 132 134 139 140 137 135 137 138 135 134 135 134 132 132 134 133 132 133 134 130 125 120 116 114 108 94 81 66 51 44 35 26 22 17 9 3 1 358 357 357 355 354 354 354 353 352 351 350 350 348 347 348 346 346 346 346 345 345 344 343 343 340 338 337 334 332 331 331
117 108 84 72 92 87 60 70 86 77 44 61 107 114 39 14 53 130 185 151 90 97 97 65 96 112 124 123 131 139 140 147 149 147 144 145 146 142 141 142 140 139 140 140 139 139 139 138 133 128 123 118 114 104 87 72 56 45 37 26 19 15 8 1 358 357 355 355 353 350 351 351 351 351 351 351 350 349 348 348 348 346 347 347 346 345 343 342 341 341 339 337 336 334 332 330 330
118 100 93 98 67 59 17 11 330 37 138 188 96 86 3 0 49 164 169 137 101 103 128 128 147 157 158 143 137 139 146 153 159 159 155 154 152 150 148 148 147 147 147 145 145 146 144 141 138 131 127 122 111 96 79 63 49 37 27 18 13 6 359 356 353 353 351 349 347 347 350 349 349 350 350 351 350 348 347 347 347 348 348 346 346 344 342 341 340 340 338 336 336 334 332 332 331
78 53 96 132 48 21 354 349 331 43 135 224 23 60 281 285 237 206 175 139 126 143 177 196 198 203 213 211 139 138 156 160 164 164 162 161 159 157 154 153 154 152 151 150 151 151 148 146 142 137 131 125 107 90 73 58 45 31 23 14 9 359 354 353 351 350 348 346 345 346 348 347 347 348 348 348 347 346 346 346 346 347 346 345 344 343 342 342 341 342 341 338 338 338 335 335 333
77 64 63 93 113 340 349 4 351 76 140 203 129 213 247 230 230 205 180 157 155 178 199 211 218 231 245 251 265 259 195 173 173 172 171 169 165 164 160 158 158 157 156 156 157 155 151 149 147 144 135 123 104 88 68 56 45 32 23 13 7 358 352 352 351 351 350 348 346 346 346 346 346 346 345 344 343 343 342 343 343 343 343 341 341 342 342 342 342 344 345 342 341 340 338 337 335
62 93 22 38 111 212 323 8 36 144 265 44 133 222 270 223 217 194 180 173 176 193 207 215 222 232 242 252 248 249 230 197 188 185 181 178 173 169 165 163 162 162 162 163 163 160 158 156 156 154 140 124 103 81 61 52 42 33 24 12 7 357 350 350 351 351 349 344 342 342 342 343 345 344 342 341 340 341 341 342 341 339 339 338 339 340 340 341 342 343 345 346 343 342 341 338 336
359 88 165 196 124 162 276 318 46 35 269 347 84 183 239 244 205 182 183 184 184 200 214 218 223 228 229 233 234 233 234 216 208 202 191 186 181 175 171 168 169 169 171 172 171 170 170 165 162 162 148 130 103 84 67 55 40 31 24 13 6 356 348 346 346 344 338 334 333 335 337 340 343 340 340 339 339 341 342 340 339 337 337 338 339 340 341 342 342 342 343 345 345 343 342 340 337
285 57 110 169 143 152 201 206 1 13 189 243 8 162 210 274 188 175 187 188 188 205 213 214 214 220 223 223 230 226 225 226 219 209 198 192 188 182 179 175 176 178 178 180 179 180 180 172 171 170 158 143 123 107 84 65 51 37 31 26 12 357 349 342 340 334 328 330 331 333 337 341 341 338 338 337 337 341 339 336 335 333 334 336 338 339 341 342 343 344 343 343 345 343 344 342 337
192 163 130 137 136 133 170 210 322 9 38 173 20 198 233 283 189 183 192 185 191 211 212 211 212 211 218 218 223 225 223 230 223 212 203 199 195 191 188 184 185 187 186 186 186 188 187 182 179 178 170 163 153 142 114 78 65 49 40 40 33 11 355 344 336 331 330 331 333 336 338 340 340 338 338 336 337 338 335 332 329 329 331 332 335 337 341 342 342 344 343 343 344 343 345 343 339
164 162 136 145 142 140 241 244 295 20 44 11 343 247 245 223 205 204 203 187 196 222 219 214 217 212 218 219 221 223 223 230 225 216 209 206 203 200 196 194 194 195 195 195 195 195 194 191 189 187 184 182 180 174 162 135 102 73 62 50 49 44 6 348 339 334 334 333 335 337 336 338 340 340 339 338 338 336 332 329 325 326 328 328 332 336 340 341 341 342 342 342 343 341 344 344 341
122 101 94 117 122 170 246 257 304 3 94 301 273 274 255 219 216 216 204 194 207 225 222 220 219 215 218 219 221 222 224 230 227 220 215 211 210 207 205 204 204 203 204 203 203 202 201 200 199 197 195 197 201 203 208 214 213 188 67 48 37 41 15 351 339 335 333 331 332 331 331 334 336 338 340 339 339 335 332 328 323 324 325 325 330 334 335 336 336 337 338 341 343 342 344 347 344
88 100 107 80 97 198 232 239 327 350 166 273 356 309 259 231 228 225 198 203 219 217 214 219 218 218 221 219 223 224 225 230 227 225 221 216 214 212 212 212 211 210 210 209 209 208 207 206 207 206 207 210 215 221 228 240 249 267 307 2 7 10 2 345 335 332 329 326 325 322 323 326 328 331 334 336 337 334 332 329 322 321 322 323 326 328 329 330 332 335 338 340 343 342 343 347 345
76 95 115 82 124 190 268 271 344 10 236 269 7 301 266 248 238 234 213 213 226 218 215 219 214 216 221 220 222 222 222 224 224 225 222 220 218 216 215 215 216 216 216 215 215 214 212 212 212 212 216 220 224 229 236 248 256 266 282 297 319 329 333 336 332 329 327 323 319 316 316 318 319 321 324 327 330 330 327 322 316 314 314 316 319 322 325 327 330 334 340 342 341 340 341 343 346
77 101 111 115 175 145 234 251 355 21 14 186 163 265 274 256 237 241 224 216 233 227 223 229 220 219 220 219 220 217 218 220 221 223 222 221 221 219 218 218 219 219 220 220 219 217 217 218 218 219 224 228 230 234 239 245 250 255 264 267 279 293 304 317 324 324 325 322 318 314 313 314 314 315 318 321 325 327 322 314 308 306 306 308 311 315 319 323 326 331 338 340 339 340 338 336 341
16 123 125 153 192 169 190 252 53 15 10 72 88 319 284 239 223 244 223 201 233 230 226 238 233 229 230 228 227 219 218 218 218 222 220 220 220 220 221 221 221 221 222 223 222 221 221 223 224 226 230 232 235 236 237 240 243 247 250 251 256 263 274 287 302 312 317 317 317 315 312 313 314 314 316 319 323 325 324 318 309 304 304 305 306 310 314 316 318 325 331 332 335 338 333 327 333
352 163 169 195 178 141 98 56 51 23 356 11 38 347 291 285 237 246 206 181 235 224 223 240 235 230 233 235 233 225 224 223 220 222 220 219 221 222 223 222 222 223 226 227 226 226 227 228 229 230 233 234 236 236 236 238 240 243 244 245 248 251 260 270 281 295 303 308 312 313 311 311 311 310 311 313 316 320 323 323 317 309 305 304 306 309 310 310 313 321 326 326 328 330 325 319 323
31 318 12 124 120 118 120 110 69 26 274 310 33 123 271 310 280 255 217 216 242 228 227 240 235 229 228 230 231 224 224 225 224 226 223 222 222 222 224 224 223 225 229 229 229 230 230 232 232 233 236 237 237 236 235 236 236 240 242 245 250 253 259 267 275 286 295 301 306 309 309 308 306 304 304 305 308 312 317 320 320 314 306 304 306 305 304 306 310 317 321 321 322 323 319 312 312
318 299 67 95 109 128 138 105 94 197 257 323 30 125 268 293 277 280 229 225 250 248 241 242 235 230 229 229 229 224 223 221 220 225 224 223 223 222 224 225 226 228 230 230 230 232 232 233 234 235 237 238 238 236 236 237 236 239 241 243 249 253 260 267 272 280 288 293 298 302 303 303 301 299 298 299 302 306 311 315 316 314 308 305 303 299 299 303 307 312 314 315 316 315 311 304 301
292 277 83 128 118 120 116 87 75 14 359 321 269 133 295 275 266 331 24 231 255 251 242 240 233 229 228 229 228 225 225 221 219 223 224 224 224 225 226 228 230 231 231 230 232 234 235 236 236 237 238 239 238 236 236 237 237 238 240 242 246 251 257 261 264 272 279 283 287 293 296 297 296 294 293 294 296 299 303 306 309 310 308 305 300 295 295 299 303 306 308 309 310 307 302 296 292
225 128 75 86 82 76 81 80 74 34 352 277 241 169 187 278 266 312 34 244 249 246 243 241 235 230 227 229 229 226 225 223 222 225 226 226 226 227 229 231 233 233 233 233 234 235 236 237 237 237 238 239 239 236 235 237 236 236 238 240 243 247 251 254 256 263 271 273 277 285 290 293 293 291 291 290 291 292 294 297 301 305 305 302 296 292 292 295 298 300 301 302 300 297 296 291 284
142 94 64 65 53 47 57 59 74 50 306 274 250 190 159 300 269 217 199 223 225 229 245 249 239 231 227 228 228 224 222 221 222 225 229 230 230 231 231 232 235 235 235 234 235 236 236 236 237 237 239 239 238 237 235 236 235 235 237 240 242 245 247 249 250 257 264 264 270 280 287 289 290 289 288 285 284 285 287 291 296 299 300 298 295 291 291 292 294 295 295 295 292 291 292 287 279
99 80 68 55 5 11 24 357 42 71 259 268 275 204 165 247 258 238 232 251 240 221 236 246 238 231 228 228 227 222 220 221 220 222 228 229 230 230 229 231 235 234 234 234 234 235 235 235 236 236 238 239 237 236 235 235 235 234 237 239 241 244 246 247 250 255 260 261 268 277 281 282 284 283 281 278 278 280 282 285 288 291 294 295 295 293 291 291 290 291 291 291 289 288 287 281 274
63 60 66 52 356 1 359 320 332 222 246 255 73 122 189 242 259 269 266 263 254 230 230 240 242 240 235 234 231 227 222 222 221 221 225 225 225 226 225 228 232 232 232 233 234 234 233 234 235 234 237 238 236 235 234 235 235 235 237 238 240 244 245 247 250 253 257 261 268 272 274 276 278 277 274 273 276 278 278 280 282 285 289 292 293 292 290 289 286 287 289 289 287 286 283 278 272
56 97 95 92 67 26 309 279 293 274 267 280 79 94 267 270 273 263 257 261 261 243 238 241 247 249 244 239 234 232 226 222 223 222 223 223 223 224 224 226 229 230 232 233 233 233 233 233 233 233 237 238 235 234 234 234 236 237 237 239 240 242 244 245 248 252 257 262 267 270 272 275 275 274 274 275 278 277 275 278 280 283 287 289 289 288 287 285 282 284 287 288 286 283 280 277 276
42 159 122 127 146 149 254 238 234 272 290 297 312 240 214 224 263 243 238 262 278 262 252 252 253 250 247 253 246 235 229 223 222 223 225 227 227 225 225 226 228 229 232 232 232 233 231 232 233 233 236 236 234 233 233 233 235 237 237 238 240 242 243 245 248 252 256 262 267 269 271 274 274 275 278 279 279 277 276 278 279 282 285 286 285 284 282 280 279 281 286 287 285 281 279 279 279
260 175 100 84 178 150 173 194 185 208 316 298 267 241 214 219 274 270 257 275 270 259 263 260 255 250 239 248 246 233 230 226 220 222 226 228 228 227 226 226 228 230 231 232 232 232 230 232 233 233 236 236 234 233 233 234 235 236 236 237 239 241 242 244 246 250 255 262 267 268 270 273 274 275 277 277 277 276 276 277 278 280 283 284 281 279 277 275 276 280 284 285 282 280 278 280 280
116 128 185 231 178 121 113 225 30 75 317 281 256 262 280 313 291 289 352 311 280 263 255 248 250 251 238 244 244 233 229 227 221 220 225 229 228 228 227 227 228 229 230 231 232 232 231 232 232 232 235 235 234 233 234 234 234 234 236 237 239 240 240 242 245 249 255 262 265 266 269 270 271 273 274 275 275 274 274 274 276 279 280 280 278 275 273 273 275 279 283 283 280 279 278 279 278
103 171 221 205 113 79 95 244 350 41 251 271 284 270 286 316 292 314 352 307 286 274 255 254 259 250 240 247 245 238 234 230 228 228 231 233 231 229 229 229 229 229 230 231 233 234 233 233 233 232 233 234 234 234 233 233 233 233 235 236 237 239 240 242 245 250 256 260 262 264 267 268 270 272 272 273 272 272 272 273 274 277 278 277 275 273 271 272 275 279 282 281 278 277 276 276 275
106 178 182 117 130 301 48 142 271 319 272 279 296 294 275 228 238 288 293 268 275 281 267 259 257 242 236 247 248 246 243 236 234 233 232 234 232 231 230 230 231 231 232 234 235 235 233 233 234 233 234 236 236 235 233 233 234 233 235 236 237 239 240 241 244 249 254 257 260 263 266 268 270 270 269 269 269 270 271 271 273 275 276 276 274 271 270 271 275 279 281 279 276 275 272 271 270
50 80 38 40 143 178 179 144 174 199 249 276 313 329 274 231 206 222 249 248 260 276 273 255 248 240 234 239 245 247 244 238 235 232 232 232 232 233 232 231 232 232 233 235 235 234 233 234 234 233 234 236 235 234 233 233 234 234 234 235 237 238 239 240 243 248 252 255 259 262 265 267 267 267 267 267 267 268 270 271 273 274 275 275 273 270 269 271 275 279 279 277 275 272 269 266 267
89 121 286 333 88 148 241 249 145 144 176 235 300 306 270 250 185 204 239 248 253 261 260 253 251 247 242 239 243 249 247 243 240 236 235 235 235 237 236 235 235 236 235 235 234 233 233 233 233 233 234 233 233 233 232 233 234 234 233 233 235 237 237 238 242 247 251 255 259 263 266 267 266 266 266 267 268 269 271 273 274 274 275 274 272 269 268 271 275 278 277 276 273 268 265 264 265
153 178 195 187 149 121 184 286 294 107 162 194 173 284 279 268 152 199 230 233 250 255 245 252 261 258 257 253 248 250 251 251 247 243 241 240 239 240 239 238 237 237 236 235 234 233 232 232 233 233 232 232 233 232 232 233 233 233 232 233 235 236 236 237 241 246 251 256 261 265 267 266 264 265 266 267 269 271 272 274 274 275 275 274 270 267 268 270 274 276 276 274 270 265 263 263 265
Height
804 805 804 806 805 805 807 808 823 829 831 840 837 834 829 822 823 824 828 828 829 836 837 835 835 834 834 838 849 858 861 861 861 853 854 867 869 869 871 870 872 871 872 873 874 874 874 875 875 875 875 875 876 876 877 877 878 878 878 878 879 879 879 879 879 879 879 879 879 879 879 879 878 879 879 878 878 877 877 876 876 875 875 874 874 873 872 872 871 871 871 871 871 870 869 869 868
804 805 804 805 804 806 811 810 829 838 836 843 836 832 828 822 824 824 827 826 829 835 836 836 837 840 842 846 849 852 861 866 866 863 863 868 868 870 871 871 872 872 874 874 875 876 876 876 876 876 877 877 878 878 878 879 879 879 880 880 880 880 881 881 881 881 881 881 881 881 881 881 881 881 881 880 880 880 879 879 878 877 877 876 876 875 874 874 873 873 873 873 872 871 871 870 869
805 805 804 805 805 806 811 814 831 841 841 844 835 828 826 824 824 824 827 827 830 832 834 835 837 845 847 847 850 853 864 867 865 865 866 868 869 871 872 872 873 874 875 875 877 876 877 878 877 878 878 879 879 879 880 880 881 881 881 881 882 882 882 882 883 883 883 883 883 884 883 883 883 883 883 882 882 881 881 880 880 879 879 878 877 877 876 876 875 875 874 874 873 873 872 871 871
805 805 805 804 807 810 816 823 833 839 841 842 835 828 825 824 825 827 830 830 832 831 832 834 840 850 848 851 857 860 867 869 867 867 867 870 870 872 872 873 874 875 876 877 878 878 879 879 879 880 880 880 880 881 881 882 882 882 883 883 883 883 884 884 885 886 885 886 885 885 885 885 885 884 884 883 883 882 882 882 881 881 880 880 879 878 878 877 877 876 875 875 874 873 873 872 872
806 806 806 804 811 817 822 831 835 838 837 836 834 827 824 823 825 830 832 832 833 832 833 834 843 852 852 858 863 866 871 870 869 868 869 871 871 873 873 874 875 876 877 878 879 879 880 880 881 881 881 881 882 882 882 883 883 884 884 884 885 885 886 887 887 887 887 887 887 887 887 886 886 886 885 885 884 884 883 883 882 882 881 881 880 880 879 878 878 877 876 876 875 874 874 873 872
807 808 808 807 814 820 826 834 837 836 831 830 831 827 825 824 826 831 833 834 834 834 835 836 842 849 857 865 867 870 872 870 870 870 870 872 873 874 874 875 876 877 879 880 880 881 881 881 881 881 882 882 883 884 884 885 885 885 886 886 886 887 888 889 888 888 888 888 888 888 888 888 887 887 887 886 886 885 885 884 884 883 882 882 881 881 880 880 879 878 878 877 876 875 875 874 873
808 810 813 814 819 822 830 836 834 834 830 829 831 830 829 828 827 829 831 832 835 837 838 842 843 847 862 869 869 872 870 869 870 871 872 873 874 874 875 876 876 877 880 881 881 881 882 882 882 883 883 883 884 885 885 886 887 887 887 888 888 890 890 890 890 889 889 889 889 889 889 889 889 888 888 887 887 886 886 885 885 884 884 883 883 882 881 881 880 880 879 878 878 877 876 875 874
808 813 818 820 827 829 835 837 832 833 832 830 833 833 831 830 827 827 831 833 839 844 843 848 846 851 869 870 871 874 870 871 871 872 874 874 874 875 876 877 877 878 880 881 882 882 883 883 883 884 884 885 885 886 887 887 888 889 889 890 890 891 891 891 890 890 890 890 890 890 890 890 890 889 889 888 888 887 887 886 886 885 885 884 884 883 883 882 882 881 880 880 879 878 877 876 875
809 814 820 823 830 835 837 838 835 833 832 834 836 836 833 832 828 828 835 839 846 851 851 851 845 853 872 872 873 876 873 873 873 874 875 874 875 876 877 877 878 878 880 881 882 883 884 885 885 885 886 886 886 887 888 889 890 890 891 891 891 892 891 892 891 891 891 891 891 891 891 891 890 890 890 890 889 889 888 887 887 886 886 885 885 884 884 883 883 882 881 881 880 879 878 877 876
812 815 820 825 831 836 839 839 837 833 834 837 840 840 837 835 832 834 839 845 850 853 855 852 849 859 871 874 876 876 875 876 874 875 876 876 876 876 877 878 879 879 880 881 882 883 883 885 885 886 886 887 888 888 889 891 891 892 892 893 892 893 892 893 892 892 892 892 892 892 892 891 891 891 890 890 890 889 889 888 888 887 887 886 886 885 885 884 884 883 883 882 881 880 879 878 877
815 816 818 828 834 836 838 837 835 835 838 839 839 842 842 838 835 840 843 847 852 853 854 853 858 866 870 876 878 877 877 876 875 877 877 876 876 877 878 879 880 880 880 882 882 883 885 885 885 886 886 887 888 889 891 892 893 893 894 894 893 893 893 893 893 893 892 892 892 891 891 891 891 891 890 890 890 889 889 889 889 888 888 887 887 886 886 885 885 884 883 883 882 881 880 879 877
817 820 820 829 834 833 835 833 834 836 841 843 842 844 845 843 840 847 850 851 853 853 855 855 860 865 870 878 879 878 878 877 877 878 878 876 877 878 879 879 880 880 881 883 883 885 886 886 887 887 887 888 889 891 893 893 893 894 894 894 894 894 893 893 893 892 892 892 891 891 891 890 890 890 890 890 890 889 889 890 889 889 889 888 887 887 887 886 886 885 884 884 883 881 880 879 878
817 822 821 829 833 832 833 834 836 836 842 847 848 849 847 847 849 853 854 855 857 856 859 859 859 862 872 880 879 880 879 879 879 878 878 877 879 880 880 881 881 881 882 883 884 886 887 887 888 888 889 889 891 892 893 893 894 894 894 894 893 893 893 893 892 892 892 891 891 891 891 891 890 890 890 890 890 890 890 890 890 890 889 889 888 887 887 887 886 886 885 884 883 881 880 879 879
814 819 819 829 836 834 833 834 836 834 843 850 851 853 850 852 857 857 854 858 863 863 864 864 861 863 873 879 880 881 881 881 880 879 878 878 880 880 881 882 882 882 883 884 885 887 887 888 889 889 891 891 892 893 893 893 894 894 893 893 893 893 892 892 892 892 892 892 892 891 891 891 891 891 891 890 890 890 890 890 890 890 890 889 888 888 887 887 886 886 885 884 882 881 880 879 878
812 817 819 826 833 834 832 835 837 834 845 853 854 856 855 858 859 858 859 861 868 868 865 864 864 865 870 875 879 882 882 883 881 880 879 879 881 880 882 882 883 884 885 886 887 888 888 889 890 891 892 892 893 893 893 893 894 894 893 893 893 893 893 893 892 892 892 892 892 892 892 891 891 891 891 891 890 890 890 890 890 890 890 889 888 888 887 887 886 886 885 883 882 881 880 879 878
811 815 821 825 831 834 832 836 839 836 847 854 855 855 857 864 861 861 866 863 868 870 867 869 870 869 871 874 879 881 882 883 882 880 879 880 881 881 883 883 884 886 886 887 887 889 890 890 891 892 893 893 893 893 893 894 894 894 894 894 893 893 893 893 893 893 893 892 892 892 892 892 891 891 891 891 890 890 890 890 890 890 889 889 888 887 887 887 886 885 885 883 882 881 880 879 879
811 814 822 829 832 832 831 834 835 834 845 854 854 853 857 865 863 865 869 865 870 873 873 876 875 873 877 879 881 881 882 883 882 880 880 881 882 883 884 885 886 887 887 888 889 890 891 891 892 892 893 893 893 893 894 894 894 894 894 894 894 894 894 894 894 893 893 893 893 893 892 892 891 891 891 891 891 890 890 890 889 889 889 888 887 887 887 886 885 885 884 883 882 881 880 879 879
811 819 826 829 829 833 836 836 835 836 846 856 858 858 857 862 866 866 868 872 875 876 878 880 878 879 881 882 882 882 883 882 882 880 881 883 883 884 886 887 887 888 889 889 890 891 891 892 892 892 893 893 893 893 894 894 894 894 894 894 894 894 894 894 894 894 894 894 893 893 892 892 892 891 891 891 890 890 890 889 889 888 888 887 887 886 886 885 884 884 883 882 881 880 880 879 878
815 825 826 828 833 842 848 842 838 840 849 859 863 864 861 865 870 867 873 882 881 878 883 882 881 884 884 884 884 883 883 882 883 882 883 885 885 886 888 889 889 890 890 891 891 892 892 892 892 893 893 893 893 893 893 894 894 894 894 894 894 894 894 894 894 894 894 894 893 893 892 892 892 891 891 891 890 890 890 889 888 888 887 886 886 885 885 884 884 883 882 882 881 880 879 878 877
820 824 823 833 841 847 852 848 845 846 852 858 863 867 867 872 872 870 878 885 886 885 888 886 885 889 888 887 886 885 884 884 885 885 885 886 887 888 889 890 890 891 891 891 892 892 892 892 893 893 893 893 893 893 894 894 894 894 895 894 895 895 894 894 894 894 893 893 893 892 892 891 891 891 890 890 890 889 889 888 888 887 886 886 885 884 884 883 883 882 881 881 879 878 877 877 876
823 829 833 843 845 847 854 854 852 853 855 858 863 864 868 876 875 876 877 877 887 893 892 890 890 891 890 889 888 887 886 887 888 887 887 888 889 889 890 890 891 891 892 891 892 892 892 893 893 893 893 894 893 894 894 895 895 895 895 894 894 894 894 894 893 893 893 892 892 891 891 891 890 890 889 889 888 888 887 887 886 886 885 885 884 883 882 882 881 881 880 879 878 877 877 876 875
830 845 851 850 846 850 858 858 856 858 858 859 864 865 871 880 882 884 878 876 889 895 893 893 892 891 891 890 889 889 888 889 890 889 889 889 890 890 890 891 891 891 892 891 892 892 893 893 894 894 894 894 894 895 895 895 895 895 894 894 894 894 893 893 893 892 892 891 891 891 890 890 889 889 888 888 887 887 886 886 885 885 884 883 883 882 881 881 880 879 879 878 877 877 876 876 875
828 849 858 854 850 853 860 861 861 861 859 862 867 872 878 881 885 891 887 888 896 895 895 894 893 893 892 891 890 890 891 890 891 890 890 890 890 891 891 891 891 892 892 892 892 893 893 894 894 894 894 894 894 895 895 895 894 894 894 894 893 893 893 892 892 892 891 891 890 890 890 889 889 888 887 887 886 886 885 885 884 884 883 883 882 881 881 880 879 878 878 877 876 876 875 875 874
830 850 861 861 859 861 865 866 866 865 864 870 872 875 881 880 882 892 894 896 897 895 896 895 894 895 893 893 892 891 892 891 891 891 891 891 891 891 891 891 891 892 891 892 893 893 893 894 894 894 894 894 894 894 894 894 894 894 893 893 893 892 893 892 892 892 891 891 890 890 889 889 888 887 887 886 886 886 885 884 884 883 883 882 881 881 880 879 878 877 877 876 875 875 874 874 873
841 854 861 864 865 868 869 868 869 869 871 874 874 879 886 884 884 893 897 898 898 896 896 896 896 895 895 894 893 893 893 892 892 892 892 891 891 891 891 892 892 892 892 892 893 893 894 894 894 894 894 894 894 894 894 893 893 893 893 892 892 892 892 891 891 891 891 890 889 889 888 888 887 887 886 886 886 885 885 884 883 883 882 881 881 880 879 878 877 877 876 875 874 873 873 872 872
847 857 861 865 868 870 869 870 871 870 874 872 874 886 890 887 886 892 899 898 898 898 897 898 897 896 896 895 895 894 893 893 892 892 892 892 891 891 892 892 892 892 892 893 893 893 893 893 894 893 893 893 893 894 893 893 893 893 892 892 892 892 891 891 891 890 890 889 889 888 888 887 887 886 886 885 885 884 884 883 883 882 882 881 880 879 878 877 877 876 875 874 873 872 872 871 870
852 858 863 866 867 870 869 871 872 870 875 872 874 886 887 886 884 887 897 899 897 899 898 899 898 897 897 896 896 895 894 893 892 892 891 892 892 891 891 892 892 892 892 892 892 893 893 893 893 893 893 893 893 893 893 893 893 892 892 892 892 891 891 891 890 890 889 889 888 888 887 887 886 886 885 885 884 884 883 882 882 881 881 880 879 879 878 877 876 875 874 873 872 871 871 870 869
853 852 860 870 868 870 871 870 870 869 876 876 875 881 884 885 885 888 896 898 898 899 899 899 898 898 897 896 896 895 895 894 893 893 892 891 892 891 891 892 891 892 892 892 892 892 893 893 893 893 893 893 893 893 892 892 892 892 892 891 891 891 891 890 890 889 889 888 888 887 887 886 886 885 885 884 883 883 882 881 881 880 880 879 879 878 877 877 876 875 874 873 872 871 870 869 868
848 846 855 870 865 864 870 870 869 869 873 878 873 870 878 887 890 895 897 897 899 899 899 899 898 898 897 897 896 896 895 894 894 893 893 892 892 892 891 891 891 891 892 892 892 892 893 893 893 893 893 893 893 892 892 892 891 891 891 891 891 890 890 890 889 889 888 888 887 887 886 886 885 885 884 884 883 882 882 881 880 880 879 879 878 877 877 876 875 874 873 872 871 870 868 867 866
847 849 853 865 861 861 872 872 869 870 871 877 872 861 871 890 894 896 897 897 900 899 899 899 898 898 898 897 897 896 896 894 895 894 894 893 892 892 891 892 892 891 892 892 892 893 893 893 892 893 893 892 892 892 891 891 891 891 891 890 890 890 889 889 889 888 888 887 887 886 886 885 885 884 884 883 883 882 881 880 880 879 879 878 877 877 876 875 874 873 872 870 870 869 867 866 864
849 850 854 862 858 863 875 876 873 870 871 878 873 860 868 887 892 895 897 898 899 898 899 898 898 898 897 898 897 896 896 895 895 894 894 893 892 893 892 892 892 892 892 892 893 892 892 893 892 892 892 892 892 891 891 891 891 890 890 890 889 889 889 888 888 887 887 886 886 886 885 885 884 884 883 883 882 882 881 880 879 879 878 877 877 876 875 874 873 873 872 870 869 868 867 866 864
854 849 854 863 860 867 876 878 879 871 872 878 871 862 870 883 888 893 896 897 899 897 898 898 898 898 897 898 897 896 896 895 895 894 893 893 892 893 892 892 892 892 892 892 892 892 892 892 892 892 891 892 891 891 891 890 890 890 890 889 889 888 888 888 887 887 887 886 886 885 885 884 884 883 883 882 882 881 880 880 879 878 878 877 876 876 874 874 873 872 872 870 868 867 866 865 863
855 849 853 861 860 867 872 875 883 880 875 874 870 864 868 879 884 891 896 895 898 897 898 899 897 898 897 897 897 896 895 894 894 893 892 893 892 892 892 892 892 892 892 892 892 892 892 891 891 892 891 891 891 890 891 890 890 890 890 889 888 888 888 887 887 886 886 885 885 884 884 884 883 883 882 882 881 880 880 879 879 878 877 877 876 875 874 873 873 872 871 871 869 868 866 864 862
852 854 858 867 868 867 868 869 878 883 875 870 874 868 867 881 886 890 894 894 896 896 896 897 896 897 896 896 896 895 895 893 892 891 891 891 891 891 891 891 891 891 891 891 891 891 891 891 891 891 891 891 890 890 890 890 890 889 889 889 888 887 887 887 886 886 885 884 884 883 883 883 882 882 881 881 880 879 879 878 878 877 876 876 875 875 874 873 873 872 871 871 870 869 867 865 863
844 848 852 863 871 867 865 869 877 882 874 869 873 866 869 888 891 889 893 894 894 894 894 895 895 895 895 895 894 893 893 891 890 889 890 890 890 890 890 890 890 890 890 889 890 890 889 890 890 890 890 890 890 890 890 889 889 889 888 888 887 886 886 885 885 884 884 883 883 882 881 881 881 880 880 880 879 879 878 878 877 876 875 875 874 874 873 872 872 871 871 870 870 869 868 866 864
845 848 849 854 863 869 873 875 881 886 875 870 873 868 874 888 890 890 892 893 893 892 893 894 893 894 893 893 892 891 891 889 888 888 888 889 888 888 888 888 888 888 888 888 888 888 888 888 888 888 888 888 888 888 888 888 888 888 887 886 886 885 884 884 883 882 882 881 881 880 880 880 879 879 878 878 878 877 877 876 876 875 875 874 873 873 872 871 871 870 870 869 868 868 867 866 864
855 854 857 863 864 867 879 881 883 889 876 872 884 882 880 885 887 889 890 892 893 891 892 892 891 891 890 890 889 888 888 886 886 887 886 886 886 887 886 886 887 886 886 886 886 886 886 886 886 886 886 886 887 886 886 886 887 886 886 885 884 884 883 882 882 881 880 880 879 879 878 878 877 877 877 876 876 876 875 875 874 874 873 872 872 871 871 870 870 869 869 868 867 866 866 865 864
858 856 859 869 870 867 879 882 881 889 876 872 891 885 875 881 884 885 889 889 888 887 888 888 887 888 886 887 886 885 885 884 885 884 884 884 884 884 884 884 884 884 884 884 884 884 884 884 884 884 884 884 884 884 885 884 884 884 883 883 882 882 882 881 881 880 879 879 878 878 877 876 876 875 875 874 874 874 874 873 873 873 872 871 871 870 870 869 869 868 867 867 866 866 865 864 863
859 861 859 859 870 872 876 882 884 888 874 870 889 881 867 878 882 881 885 884 883 882 883 882 882 884 883 883 882 882 882 882 882 881 880 881 881 881 881 882 881 881 881 881 882 882 882 882 882 882 882 882 882 882 882 882 882 882 881 881 881 880 880 879 879 879 878 878 877 877 876 875 875 874 874 873 873 872 872 872 871 871 871 870 869 869 869 868 868 867 867 866 865 865 865 864 864
860 859 853 854 874 871 860 872 884 887 882 877 887 883 870 872 874 876 878 879 879 879 880 880 879 878 877 877 877 877 878 878 878 877 877 877 878 879 878 877 878 879 879 879 879 879 879 879 879 879 879 879 880 880 880 880 879 879 879 879 879 878 878 878 877 877 877 876 876 875 875 874 873 873 872 871 871 871 870 870 870 869 869 869 868 868 867 867 866 866 866 865 865 864 863 863 863
863 859 854 855 869 869 865 876 883 883 886 885 885 873 859 862 866 864 869 876 877 875 877 877 875 875 874 874 873 872 872 872 873 873 873 874 874 874 874 874 875 875 875 874 875 875 875 876 876 877 877 877 877 877 877 877 877 877 877 877 877 876 876 876 875 875 875 874 874 874 873 872 871 871 870 870 869 869 869 868 868 867 867 867 867 866 866 866 865 865 865 864 864 864 863 862 862
857 859 862 860 862 870 877 880 876 867 869 883 886 858 839 853 863 858 863 873 872 872 875 871 870 872 872 871 869 868 869 867 868 868 868 870 869 870 870 871 872 870 870 870 871 872 872 873 874 874 874 874 874 874 875 875 874 874 874 874 874 874 874 873 873 873 872 872 872 872 871 870 870 869 868 868 867 867 867 866 866 866 866 866 865 865 865 864 864 864 864 863 863 863 863 861 861
852 862 872 871 868 871 874 875 870 862 865 884 891 866 846 846 844 850 863 867 866 868 869 865 864 866 865 865 863 863 864 863 864 864 864 865 864 866 866 865 866 865 865 867 868 869 870 870 871 871 871 871 871 871 872 872 871 871 871 871 871 871 871 871 871 871 870 870 870 869 869 868 868 867 866 866 866 865 865 864 864 864 864 864 864 863 863 863 862 862 862 862 862 862 862 861 860
855 869 876 872 868 868 873 874 870 874 880 886 890 882 871 853 840 856 868 859 859 863 861 859 858 858 857 857 857 857 857 858 859 859 859 860 859 860 860 860 861 860 861 864 865 865 866 866 867 867 868 868 868 868 868 868 868 868 868 868 868 868 868 868 868 868 868 867 867 867 867 866 866 866 865 864 864 863 863 863 863 863 862 862 862 861 861 861 861 860 860 860 860 860 860 859 859
865 878 880 875 874 873 878 878 873 883 880 870 881 887 875 853 841 861 871 856 851 849 846 847 847 849 850 849 850 850 850 852 853 853 852 853 854 854 855 855 856 857 859 860 860 861 862 863 864 864 864 864 864 865 865 865 865 865 865 865 865 865 865 866 865 865 865 865 865 864 864 864 864 863 863 862 862 861 861 861 861 861 860 860 860 859 859 859 859 858 859 859 859 859 859 858 857
874 882 880 878 882 880 880 877 871 880 874 861 875 884 870 848 830 845 862 852 841 835 833 834 834 839 843 843 844 844 846 848 847 848 847 847 849 849 851 853 853 854 855 856 856 858 858 859 860 860 860 860 860 861 861 862 862 862 862 861 861 862 862 863 863 862 863 862 862 862 861 862 861 861 861 860 860 859 859 859 859 859 858 858 858 857 857 857 857 857 857 857 857 857 857 856 856
877 878 875 873 877 877 879 880 875 875 870 865 878 881 873 854 827 828 839 830 823 823 823 826 828 833 835 835 838 838 840 842 842 843 843 843 845 846 848 849 848 849 851 852 853 853 854 854 855 855 855 856 856 857 858 858 858 858 858 858 858 859 859 859 859 859 860 859 859 859 859 859 859 859 858 858 858 857 857 857 857 856 856 856 855 855 855 854 854 855 855 855 855 855 854 854 853
877 870 866 864 867 871 872 875 876 871 861 867 888 889 881 859 823 817 827 824 824 824 816 814 818 825 828 828 830 832 834 835 837 839 839 840 842 843 844 843 843 845 846 847 847 848 849 849 850 850 850 851 852 853 853 853 854 854 854 854 854 855 855 856 856 856 856 856 856 856 856 856 856 856 856 856 856 855 855 855 854 854 854 853 853 852 852 852 852 852 852 852 852 852 852 852 851
870 863 862 861 862 867 863 865 876 872 860 873 889 882 877 861 823 814 823 820 823 827 821 814 814 820 823 825 827 828 831 832 833 835 834 836 837 836 838 837 838 840 840 841 841 842 844 844 845 846 845 846 847 848 849 849 850 850 850 850 850 851 852 852 852 853 853 853 853 853 853 853 853 853 853 853 853 853 852 852 852 851 851 851 850 850 850 850 850 850 850 850 850 850 849 849 849
863 861 862 860 864 869 863 870 881 871 860 877 892 879 866 849 823 815 815 810 816 823 825 823 821 822 821 823 826 826 828 829 829 830 830 830 830 830 831 832 832 834 833 835 836 837 839 839 840 840 839 841 842 843 844 844 844 845 845 846 847 847 848 848 849 849 850 850 850 850 849 850 850 850 850 850 850 850 850 849 849 849 848 848 848 848 847 848 848 848 848 847 847 847 847 846 846
871 875 872 861 864 866 860 865 866 862 866 878 885 872 848 826 813 814 814 816 825 825 825 828 825 824 824 823 825 824 824 824 824 825 825 824 824 824 825 826 826 827 828 829 831 832 833 834 834 834 834 835 837 837 838 839 839 840 841 842 843 843 844 845 845 846 846 846 846 846 846 846 847 847 847 847 847 847 847 846 846 845 845 845 845 845 845 845 845 845 845 844 844 844 844 843 843
880 887 874 863 867 867 875 890 890 891 888 876 871 859 839 824 810 812 820 819 823 824 823 826 822 821 825 823 821 820 819 819 819 820 819 818 818 819 820 820 820 821 823 824 825 826 827 827 827 828 828 829 831 832 832 833 834 836 837 838 839 839 840 841 842 842 843 843 843 843 843 843 844 844 844 844 844 844 844 843 843 843 842 842 842 842 842 842 842 842 841 841 841 841 840 840 840
874 877 867 874 885 873 876 898 914 917 893 868 866 851 836 830 807 802 817 811 808 816 816 815 816 819 824 819 815 815 814 814 813 813 813 811 812 814 814 814 815 816 817 817 818 818 819 820 821 822 823 824 826 826 827 828 830 831 832 833 834 835 836 837 838 839 839 840 840 840 840 840 840 841 841 841 841 841 841 840 840 839 839 839 839 839 839 839 839 839 838 838 837 837 837 837 837
867 865 868 882 888 880 879 882 890 902 888 868 865 848 837 838 813 798 806 800 793 801 805 810 814 817 819 814 810 810 808 809 809 809 809 808 808 809 809 809 809 809 810 810 810 812 814 815 816 817 817 818 820 821 822 824 825 826 827 828 830 830 832 833 834 835 836 836 837 837 837 837 837 838 838 838 838 838 837 837 836 836 836 836 836 836 836 836 836 835 835 834 834 834 834 833 833
872 868 878 880 869 869 881 880 871 880 885 872 865 863 851 836 818 800 794 793 789 790 797 806 808 809 812 808 806 806 804 806 807 805 805 804 803 803 803 803 803 804 805 805 806 808 809 810 811 811 812 813 814 816 818 819 820 821 822 823 825 827 828 830 831 832 832 833 833 833 834 833 834 835 835 835 835 834 834 834 833 833 833 833 833 833 833 832 832 832 831 831 831 831 830 830 830
881 876 882 884 876 874 878 885 881 875 880 875 866 863 838 811 809 802 790 792 791 788 793 796 796 800 805 803 802 801 801 802 801 800 800 799 798 798 797 798 798 799 799 800 802 804 804 805 806 807 808 809 811 812 813 814 815 816 818 819 821 823 824 826 827 828 829 829 830 830 830 830 830 831 832 831 831 831 831 830 830 830 830 829 829 829 829 829 829 828 828 827 827 827 827 826 827
875 873 877 881 886 890 884 889 894 879 874 880 876 859 821 795 800 798 791 794 790 789 793 790 790 796 799 801 799 797 798 798 796 796 795 794 793 793 793 794 794 795 796 797 798 799 799 800 801 801 803 804 806 807 808 809 811 812 814 815 817 819 820 822 823 824 825 825 826 826 826 826 827 827 828 828 827 827 827 827 827 826 826 826 825 825 825 825 825 824 824 824 824 824 823 823 823
868 863 869 871 874 883 876 878 896 895 883 880 881 863 816 786 792 794 792 793 786 789 796 791 790 794 796 799 798 797 796 794 793 792 790 790 790 789 790 790 791 792 792 792 793 793 794 795 795 796 798 800 800 802 803 804 806 808 809 811 813 815 817 819 820 820 821 822 822 822 822 823 824 824 825 824 824 824 824 823 823 822 822 822 821 822 822 821 821 821 820 820 820 820 820 819 819